Location: LDNL
(36.4545°S, 141.6685°E)
Time: 11:13:11
(UTC+10:00)

A-11 Canister half - Pass Details

Date: 18 August 2022
Orbit: 1524 x 1684 km, 47.3° (Epoch: 26 September)

Event Time Altitude Azimuth Distance (km) Brightness Sun altitude
Rises 12:55:35 0° 9° (N) 4,766 12.4 40.2°
Reaches altitude 10° 13:01:17 10° 35° (NE) 3,754 11.7 40.1°
Maximum altitude 13:04:46 13° 58° (ENE) 3,541 11.3 40.0°
Drops below altitude 10° 13:08:14 10° 80° (E) 3,729 11.1 39.9°
Sets 13:13:46 0° 106° (ESE) 4,699 11.3 39.7°
